Flag for Germany Weather past 2 weeks in Kassel, Hesse, Germany

Now
57 °F

Partly sunny.


Feels Like: 57 °F
Forecast: 41 / 60 °F
Wind: 3 mph from North

Location: Kassel / Calden

Current Time: Sep 23, 2014 at 3:14:19 PM

Latest Report: Sep 23, 2014 at 2:50 PM


Visibility: N/A

Pressure: 30.12 "Hg

Humidity: 59%

Dew point: 43 °F

Location of KasselLocation

Historic Weather in Kassel — Graph

°F

Kassel temperature yesterday

Maximum temperature yesterday: 54 °F (at 10:50 AM)
Minimum temperature yesterday: 43 °F (at 12:50 PM)
Average temperature yesterday: 51 °F

Past Weeks' High & Low Weather Summary

 TemperatureHumidityPressure
High73 °F (Sep 16, 3:50 PM)100% (Sep 9, 6:20 AM)30.21 "Hg (Sep 9, 6:20 AM)
Low43 °F (Sep 22, 12:50 PM)11% (Sep 9, 4:50 PM)29.89 "Hg (Sep 18, 2:20 PM)
Average60 °F84%30.04 "Hg
* Reported Sep 8 1:20 PM — Sep 23 1:50 PM, Kassel, Weather by CustomWeather, © 2014

Note: Actual official high and low records may vary slightly from our data, if they occured in-between our weather recording intervals... More about our weather records

Advertising

Kassel weather history for previous 24 hours

 ConditionsComfort  
Time TempWeatherWind HumidityBarometerVisibility
1:50 PM
Sep 23
55 °FPartly sunny.3 mph59%30.15 "HgN/A
1:20 PM55 °FPartly sunny.5 mph59%30.15 "HgN/A
12:20 PM55 °FScattered clouds.8 mph63%30.15 "HgN/A
11:50 AM55 °FScattered clouds.3 mph72%30.18 "HgN/A
11:20 AM54 °FPartly sunny.6 mph77%30.18 "HgN/A
10:50 AM52 °FPartly sunny.5 mph77%30.18 "HgN/A
10:20 AM50 °FScattered clouds.5 mph82%30.18 "HgN/A
9:50 AM50 °FScattered clouds.7 mph82%30.15 "HgN/A
9:20 AM50 °FScattered clouds.7 mph82%30.15 "HgN/A
8:50 AM48 °FScattered clouds.6 mph87%30.15 "HgN/A
8:20 AM46 °FScattered clouds.1 mph93%30.15 "HgN/A
7:50 AM45 °FPassing clouds.3 mph93%30.15 "HgN/A
7:20 AM45 °FPassing clouds.2 mph93%30.12 "HgN/A
6:50 AM46 °FPassing clouds.12 mph87%30.12 "HgN/A
6:20 AM48 °FOvercast.12 mph87%30.12 "Hg6 mi
5:50 AM48 °FOvercast.12 mph87%30.12 "Hg5 mi
9:50 PM
Sep 22
50 °FPassing clouds.12 mph82%30.09 "HgN/A
9:20 PM52 °FPassing clouds.12 mph77%30.09 "HgN/A
8:50 PM50 °FPassing clouds.10 mph88%30.09 "HgN/A
8:20 PM50 °FScattered clouds.13 mph82%30.07 "HgN/A
7:50 PM52 °FScattered clouds.13 mph82%30.07 "HgN/A
7:20 PM54 °FScattered clouds.12 mph72%30.04 "HgN/A
6:50 PM54 °FScattered clouds.14 mph72%30.04 "HgN/A
6:20 PM54 °FScattered clouds.16 mph72%30.04 "HgN/A
5:50 PM54 °FScattered clouds.18 mph72%30.04 "HgN/A
5:20 PM54 °FScattered clouds.18 mph72%30.04 "HgN/A
4:50 PM54 °FScattered clouds.18 mph72%30.01 "HgN/A
4:20 PM52 °FScattered clouds.16 mph77%30.01 "HgN/A
3:50 PM54 °FScattered clouds.17 mph72%30.01 "HgN/A
3:20 PM54 °FScattered clouds.16 mph77%30.01 "HgN/A
Weather by CustomWeather, © 2014

See weather overviewHow to use our weather pages